Location: Newark
(45.4041°N, 17.9426°E)
Time: 16:00:57
(UTC+00:00)

Envisat - Pass Details

Date: 26 September 2019
Orbit: 764 x 766 km, 98.1° (Epoch: 17 October)

Event Time Altitude Azimuth Distance (km) Brightness Sun altitude
Rises 17:19:38 0° 180° (S) 3,219 6.2 -8.0°
Reaches altitude 10° 17:22:00 10° 186° (S) 2,297 5.5 -8.4°
Maximum altitude 17:26:54 49° 261° (W) 991 4.1 -9.2°
Drops below altitude 10° 17:31:50 10° 336° (NNW) 2,313 5.9 -10.1°
Sets 17:34:14 0° 342° (NNW) 3,243 6.6 -10.5°
